Location: Newark
(55.7681°N, 37.7103°E)
Time: 23:13:32
(UTC+00:00)

N. Korean satellite - Pass Details

Date: 30 October 2019
Orbit: 456 x 506 km, 97.2° (Epoch: 17 November)

Event Time Altitude Azimuth Distance (km) Brightness Sun altitude
Rises 03:36:35 0° 14° (NNE) 2,588 10.3 -8.0°
Reaches altitude 10° 03:38:40 10° 16° (NNE) 1,708 9.4 -7.7°
Maximum altitude 03:42:21 81° 103° (ESE) 514 6.8 -7.2°
Drops below altitude 10° 03:46:03 10° 192° (SSW) 1,714 9.4 -6.7°
Sets 03:48:09 0° 193° (SSW) 2,597 10.3 -6.4°
